This is the latest recevied weather packets stored in our database for station/object DW9280. If no packets are shown the sender has not sent any weather packets the latest 10 day(s).
| Time | Temp. | Humidity | Pressure | Rain* | Wind** | Luminosity | Snow |
|---|---|---|---|---|---|---|---|
| 1787653593 | 22.22° C | 61% | 1015 hPa | 0 mm | - | 612 W/m² | - |
| 1787653291 | 22.22° C | 61% | 1015.1 hPa | 0 mm | - | 638 W/m² | - |
| 1787653114 | 21.67° C | 61% | 1015.1 hPa | 0 mm | - | 633 W/m² | - |
| 1787652687 | 21.67° C | 61% | 1015.2 hPa | 0 mm | - | 555 W/m² | - |
| 1787652388 | 21.67° C | 63% | 1015.2 hPa | 0 mm | - | 647 W/m² | - |
| 1787652085 | 21.11° C | 63% | 1015.3 hPa | 0 mm | - | 613 W/m² | - |
| 1787651785 | 21.11° C | 63% | 1015.3 hPa | 0 mm | - | 619 W/m² | - |
| 1787651489 | 21.11° C | 64% | 1015.4 hPa | 0 mm | - | 533 W/m² | - |
| 1787651183 | 20.56° C | 63% | 1015.4 hPa | 0 mm | - | 504 W/m² | - |
| 1787650880 | 20.56° C | 64% | 1015.4 hPa | 0 mm | - | 510 W/m² | - |
| 1787650581 | 20.56° C | 64% | 1015.3 hPa | 0 mm | - | 499 W/m² | - |
| 1787650283 | 20.56° C | 64% | 1015.3 hPa | 0 mm | - | 513 W/m² | - |
| 1787649981 | 20.56° C | 66% | 1015.3 hPa | 0 mm | - | 571 W/m² | - |
| 1787649678 | 20.56° C | 66% | 1015.3 hPa | 0 mm | - | 568 W/m² | - |
| 1787649375 | 20° C | 66% | 1015.3 hPa | 0 mm | - | 566 W/m² | - |
| 1787649074 | 19.44° C | 69% | 1015.2 hPa | 0 mm | - | 592 W/m² | - |
| 1787648772 | 19.44° C | 70% | 1015.3 hPa | 0 mm | - | 559 W/m² | - |
| 1787648506 | 19.44° C | 70% | 1015.4 hPa | 0 mm | - | 563 W/m² | - |
| 1787648295 | 18.89° C | 70% | 1015.3 hPa | 0 mm | - | 571 W/m² | - |
| 1787647867 | 18.89° C | 70% | 1015.2 hPa | 0 mm | - | 403 W/m² | - |
| 1787647568 | 18.33° C | 71% | 1015.4 hPa | 0 mm | - | 290 W/m² | - |
| 1787647267 | 18.33° C | 71% | 1015.3 hPa | 0 mm | - | 531 W/m² | - |
| 1787646966 | 18.33° C | 72% | 1015.3 hPa | 0 mm | - | 536 W/m² | - |
| 1787646793 | 18.33° C | 72% | 1015.4 hPa | 0 mm | - | 534 W/m² | - |
| 1787646369 | 18.33° C | 72% | 1015.3 hPa | 0 mm | - | 524 W/m² | - |
* Rain latest hour (hover to see other rain measurements)
** Current wind speed in m/s (hover to see current wind gust speed)